EW5071 Weather Reports


Display with metric or nautical units.
time (UTC)temp
F
wind
direction
speed
MPH
gust
MPH
rain 1hr
in
rain 24hr
in
rain mn
in
humidity
%
barometer
mb
20260505113105 55 105 1.0 3.0 0.00 0.00 0.00 76 1020.5
20260505111502 55 112 1.0 5.0 0.00 0.00 0.00 76 1020.3
20260505101602 55 90 2.0 5.0 0.00 0.00 0.00 75 1020.0
20260505100002 55 90 2.0 5.0 0.00 0.00 0.00 75 1019.9
20260505094603 56 150 3.0 9.0 0.00 0.00 0.00 75 1019.8
20260505093002 56 119 5.0 9.0 0.00 0.00 0.00 75 1019.6
20260505091603 55 151 5.0 9.0 0.00 0.00 0.00 75 1019.4
20260505090001 56 162 5.0 9.0 0.00 0.00 0.00 74 1019.1
20260505084601 56 142 6.0 10.0 0.00 0.00 0.00 73 1018.9
20260505083005 57 156 7.0 12.0 0.00 0.00 0.00 74 1018.5
20260505081602 57 142 8.0 11.0 0.00 0.00 0.00 74 1018.3
20260505080103 57 125 4.0 10.0 0.00 0.00 0.00 74 1017.7
20260505074501 58 156 4.0 8.0 0.00 0.00 0.00 72 1017.4
20260505073107 59 123 2.0 5.0 0.00 0.00 0.00 69 1017.1
20260505071509 61 125 0.0 3.0 0.00 0.00 0.00 67 1016.9
20260505070002 61 123 3.0 4.0 0.00 0.00 0.00 66 1016.7
20260505064605 62 277 2.0 6.0 0.00 0.00 0.00 65 1016.4
20260505063004 62 140 4.0 9.0 0.00 0.00 0.00 63 1016.2
20260505061609 63 163 5.0 9.0 0.00 0.00 0.00 63 1016.0
20260505060002 64 131 4.0 9.0 0.00 0.00 0.00 61 1015.9
20260505054502 64 140 6.0 12.0 0.00 0.00 0.00 60 1015.7
20260505053113 65 156 6.0 10.0 0.00 0.00 0.00 59 1015.5
20260505051501 66 168 7.0 10.0 0.00 0.00 0.00 57 1015.4
20260505041615 67 101 4.0 9.0 0.00 0.00 0.00 51 1014.9
20260505040002 68 75 0.0 2.0 0.00 0.00 0.00 50 1014.7
20260505034604 68 5 0.0 2.0 0.00 0.00 0.00 48 1014.6
20260505031608 68 292 0.0 8.0 0.00 0.00 0.00 52 1014.5
20260505030002 67 159 5.0 7.0 0.00 0.00 0.00 50 1014.5
20260505024601 68 174 3.0 8.0 0.00 0.00 0.00 49 1014.5
20260505023001 68 209 6.0 14.0 0.00 0.00 0.00 49 1014.5
20260505021602 68 211 1.0 9.0 0.00 0.00 0.00 47 1014.8
20260505020002 68 290 4.0 10.0 0.00 0.00 0.00 47 1014.8
20260505014603 69 311 7.0 15.0 0.00 0.00 0.00 47 1015.0
20260505013003 69 308 4.0 7.0 0.00 0.00 0.00 47 1015.0
20260505011602 69 80 2.0 11.0 0.00 0.00 0.00 48 1015.1
20260505010002 68 4 6.0 9.0 0.00 0.00 0.00 53 1015.1
20260505004602 67 332 7.0 12.0 0.00 0.00 0.00 55 1015.0
20260505003001 66 331 11.0 16.0 0.00 0.00 0.00 56 1015.0
20260505001604 65 352 10.0 17.0 0.00 0.00 0.00 56 1015.0
20260505000002 64 330 10.0 17.0 0.00 0.00 0.00 59 1014.9
20260504234639 63 333 8.0 16.0 0.00 0.00 0.00 61 1015.0
20260504233001 62 325 9.0 17.0 0.00 0.00 0.00 62 1015.0
20260504231605 61 340 9.0 14.0 0.00 0.00 0.00 67 1015.0
20260504224501 54 316 4.0 9.0 0.00 0.00 0.00 83 1015.0
20260504223102 51 352 2.0 6.0 0.00 0.00 0.00 89 1015.0
20260504221501 47 9 0.0 2.0 0.00 0.00 0.00 90 1014.9
20260504214501 45 9 0.0 2.0 0.00 0.00 0.00 86 1014.5
20260504213102 46 9 1.0 4.0 0.00 0.00 0.00 84 1014.4
20260504211501 47 360 0.0 2.0 0.00 0.00 0.00 80 1014.1
20260504210111 48 193 0.0 2.0 0.00 0.00 0.00 80 1013.9
20260504204502 50 193 0.0 3.0 0.00 0.00 0.00 78 1013.5
20260504203104 51 193 1.0 3.0 0.00 0.00 0.00 76 1013.2
20260504201502 54 219 1.0 3.0 0.00 0.00 0.00 73 1012.9
20260504200002 54 351 5.0 14.0 0.00 0.00 0.00 74 1012.5
20260504194611 54 1 9.0 15.0 0.00 0.00 0.00 76 1012.2
20260504193002 53 344 11.0 15.0 0.00 0.00 0.00 78 1012.2
20260504191601 52 350 5.0 10.0 0.00 0.00 0.00 78 1012.0
20260504190003 52 350 7.0 11.0 0.00 0.02 0.00 79 1011.8
20260504184506 51 358 7.0 10.0 0.00 0.02 0.00 79 1011.7
20260504183102 51 256 0.0 5.0 0.00 0.02 0.00 78 1011.5
20260504181501 51 250 1.0 8.0 0.00 0.02 0.00 78 1011.4
20260504180210 51 296 5.0 9.0 0.00 0.03 0.00 79 1011.3
20260504174502 52 315 4.0 8.0 0.00 0.03 0.00 75 1011.2
20260504173003 53 320 4.0 8.0 0.00 0.03 0.00 74 1011.1
20260504171602 54 321 3.0 5.0 0.00 0.03 0.00 73 1011.1
20260504140128 56 339 3.0 7.0 0.00 0.24 0.00 74 1010.5
20260504120114 54 352 2.0 4.0 0.00 0.24 0.24 73 1010.8